Time,TemperatureF,DewpointF,PressureIn,WindDirection,WindDirectionDegrees,WindSpeedMPH,WindSpeedGustMPH,Humidity,HourlyPrecipIn,Conditions,Clouds,dailyrainin,SoftwareType,DateUTC
2013-06-13 00:02:00,80.0,72.0,29.80,WNW,292,9.0,13.0,76,-99.99,,,-99.99,,2013-06-13 05:02:00,
2013-06-13 00:12:00,80.0,70.0,29.80,NNW,337,11.0,18.0,72,-99.99,,,-99.99,,2013-06-13 05:12:00,
2013-06-13 00:24:00,81.0,68.0,29.80,NNW,337,14.0,22.0,66,-99.99,,,-99.99,,2013-06-13 05:24:00,
2013-06-13 00:33:00,80.0,65.0,29.81,NW,315,16.0,23.0,60,-99.99,,,-99.99,,2013-06-13 05:33:00,
2013-06-13 00:43:00,79.0,64.0,29.82,NW,315,15.0,21.0,60,-99.99,,,-99.99,,2013-06-13 05:43:00,
2013-06-13 00:53:00,79.0,64.0,29.82,NW,315,13.0,18.0,61,-99.99,,,-99.99,,2013-06-13 05:53:00,
2013-06-13 01:02:00,78.0,65.0,29.82,WNW,292,12.0,16.0,64,-99.99,,,-99.99,,2013-06-13 06:02:00,
2013-06-13 01:11:00,77.0,64.0,29.82,NNW,337,12.0,16.0,64,-99.99,,,-99.99,,2013-06-13 06:11:00,
2013-06-13 01:22:00,77.0,64.0,29.83,NW,315,11.0,14.0,65,-99.99,,,-99.99,,2013-06-13 06:22:00,
2013-06-13 01:33:00,77.0,64.0,29.83,NW,315,12.0,16.0,64,-99.99,,,-99.99,,2013-06-13 06:33:00,
2013-06-13 01:44:00,76.0,63.0,29.84,NW,315,12.0,17.0,64,-99.99,,,-99.99,,2013-06-13 06:44:00,
2013-06-13 01:52:00,76.0,63.0,29.84,NNW,337,13.0,17.0,65,-99.99,,,-99.99,,2013-06-13 06:52:00,
2013-06-13 02:01:00,75.0,63.0,29.84,NW,315,12.0,16.0,66,-99.99,,,-99.99,,2013-06-13 07:01:00,
2013-06-13 02:11:00,74.0,63.0,29.84,NW,315,12.0,17.0,67,-99.99,,,-99.99,,2013-06-13 07:11:00,
2013-06-13 02:22:00,74.0,63.0,29.84,NW,315,14.0,21.0,67,-99.99,,,-99.99,,2013-06-13 07:22:00,
2013-06-13 02:33:00,73.0,61.0,29.85,WNW,292,10.0,17.0,66,-99.99,,,-99.99,,2013-06-13 07:33:00,
2013-06-13 02:42:00,73.0,61.0,29.85,NW,315,10.0,15.0,68,-99.99,,,-99.99,,2013-06-13 07:42:00,
2013-06-13 02:52:00,72.0,61.0,29.85,NW,315,10.0,15.0,68,-99.99,,,-99.99,,2013-06-13 07:52:00,
2013-06-13 03:01:00,72.0,61.0,29.85,WNW,292,10.0,16.0,70,-99.99,,,-99.99,,2013-06-13 08:01:00,
2013-06-13 03:11:00,71.0,60.0,29.86,WNW,292,14.0,18.0,67,-99.99,,,-99.99,,2013-06-13 08:11:00,
2013-06-13 03:22:00,71.0,59.0,29.86,West,270,12.0,19.0,67,-99.99,,,-99.99,,2013-06-13 08:22:00,
2013-06-13 03:32:00,70.0,58.0,29.86,WNW,292,17.0,22.0,65,-99.99,,,-99.99,,2013-06-13 08:32:00,
2013-06-13 03:43:00,70.0,58.0,29.86,WNW,292,18.0,26.0,67,-99.99,,,-99.99,,2013-06-13 08:43:00,
2013-06-13 03:52:00,69.0,58.0,29.87,NW,315,15.0,20.0,69,-99.99,,,-99.99,,2013-06-13 08:52:00,
2013-06-13 04:02:00,68.0,58.0,29.87,NW,315,13.0,19.0,70,-99.99,,,-99.99,,2013-06-13 09:02:00,
2013-06-13 04:11:00,68.0,59.0,29.87,NW,315,16.0,22.0,72,-99.99,,,-99.99,,2013-06-13 09:11:00,
2013-06-13 04:22:00,68.0,59.0,29.87,NW,315,13.0,18.0,74,-99.99,,,-99.99,,2013-06-13 09:22:00,
2013-06-13 04:32:00,67.0,59.0,29.87,NW,315,10.0,14.0,75,-99.99,,,-99.99,,2013-06-13 09:32:00,
2013-06-13 04:42:00,67.0,59.0,29.87,WNW,292,14.0,21.0,76,-99.99,,,-99.99,,2013-06-13 09:42:00,
2013-06-13 04:52:00,66.0,59.0,29.88,West,270,11.0,16.0,77,-99.99,,,-99.99,,2013-06-13 09:52:00,
2013-06-13 05:01:00,66.0,59.0,29.88,NW,315,11.0,16.0,78,-99.99,,,-99.99,,2013-06-13 10:01:00,
2013-06-13 05:11:00,66.0,59.0,29.88,NW,315,13.0,17.0,77,-99.99,,,-99.99,,2013-06-13 10:11:00,
2013-06-13 05:22:00,66.0,59.0,29.89,WNW,292,13.0,17.0,78,-99.99,,,-99.99,,2013-06-13 10:22:00,
2013-06-13 05:33:00,66.0,59.0,29.90,WNW,292,12.0,17.0,78,-99.99,,,-99.99,,2013-06-13 10:33:00,
2013-06-13 05:43:00,66.0,59.0,29.90,NW,315,11.0,19.0,77,-99.99,,,-99.99,,2013-06-13 10:43:00,
2013-06-13 05:53:00,66.0,59.0,29.91,WNW,292,10.0,14.0,77,-99.99,,,-99.99,,2013-06-13 10:53:00,
2013-06-13 06:02:00,67.0,59.0,29.90,NW,315,11.0,15.0,77,-99.99,,,-99.99,,2013-06-13 11:02:00,
2013-06-13 06:11:00,67.0,59.0,29.91,WNW,292,11.0,16.0,77,-99.99,,,-99.99,,2013-06-13 11:11:00,
2013-06-13 06:23:00,67.0,59.0,29.91,NW,315,11.0,14.0,76,-99.99,,,-99.99,,2013-06-13 11:23:00,
2013-06-13 06:32:00,67.0,59.0,29.91,WNW,292,11.0,16.0,75,-99.99,,,-99.99,,2013-06-13 11:32:00,
2013-06-13 06:42:00,67.0,59.0,29.92,NW,315,12.0,18.0,75,-99.99,,,-99.99,,2013-06-13 11:42:00,
2013-06-13 06:52:00,67.0,59.0,29.92,NW,315,11.0,16.0,75,-99.99,,,-99.99,,2013-06-13 11:52:00,
2013-06-13 07:01:00,67.0,59.0,29.92,NW,315,11.0,16.0,75,-99.99,,,-99.99,,2013-06-13 12:01:00,
2013-06-13 07:11:00,67.0,59.0,29.93,NW,315,11.0,18.0,75,-99.99,,,-99.99,,2013-06-13 12:11:00,
2013-06-13 07:22:00,68.0,59.0,29.93,WNW,292,10.0,17.0,75,-99.99,,,-99.99,,2013-06-13 12:22:00,
2013-06-13 07:34:00,68.0,60.0,29.93,West,270,10.0,13.0,76,-99.99,,,-99.99,,2013-06-13 12:34:00,
2013-06-13 07:42:00,68.0,60.0,29.94,NW,315,11.0,15.0,74,-99.99,,,-99.99,,2013-06-13 12:42:00,
2013-06-13 07:52:00,69.0,60.0,29.94,WNW,292,11.0,15.0,74,-99.99,,,-99.99,,2013-06-13 12:52:00,
2013-06-13 08:01:00,70.0,61.0,29.94,NW,315,11.0,16.0,73,-99.99,,,-99.99,,2013-06-13 13:01:00,
2013-06-13 08:11:00,69.0,60.0,29.94,NW,315,12.0,16.0,73,-99.99,,,-99.99,,2013-06-13 13:11:00,
2013-06-13 08:21:00,70.0,61.0,29.94,East,90,11.0,14.0,72,-99.99,,,-99.99,,2013-06-13 13:21:00,
2013-06-13 08:32:00,71.0,60.0,29.95,NNW,337,11.0,16.0,70,-99.99,,,-99.99,,2013-06-13 13:32:00,
2013-06-13 08:43:00,70.0,61.0,29.95,NNW,337,11.0,15.0,72,-99.99,,,-99.99,,2013-06-13 13:43:00,
2013-06-13 08:53:00,71.0,61.0,29.96,NNW,337,10.0,14.0,70,-99.99,,,-99.99,,2013-06-13 13:53:00,
2013-06-13 09:02:00,71.0,61.0,29.96,NNW,337,10.0,16.0,71,-99.99,,,-99.99,,2013-06-13 14:02:00,
2013-06-13 09:11:00,71.0,61.0,29.97,NNW,337,12.0,16.0,71,-99.99,,,-99.99,,2013-06-13 14:11:00,
2013-06-13 09:22:00,72.0,62.0,29.97,NNW,337,10.0,13.0,70,-99.99,,,-99.99,,2013-06-13 14:22:00,
2013-06-13 09:33:00,71.0,62.0,29.97,NNW,337,12.0,16.0,72,-99.99,,,-99.99,,2013-06-13 14:33:00,
2013-06-13 09:43:00,71.0,62.0,29.98,NNW,337,9.0,14.0,72,-99.99,,,-99.99,,2013-06-13 14:43:00,
2013-06-13 09:53:00,72.0,63.0,29.98,NW,315,9.0,13.0,73,-99.99,,,-99.99,,2013-06-13 14:53:00,
2013-06-13 10:01:00,73.0,62.0,29.99,NNW,337,9.0,13.0,70,-99.99,,,-99.99,,2013-06-13 15:01:00,
2013-06-13 10:12:00,72.0,62.0,29.99,East,90,11.0,17.0,71,-99.99,,,-99.99,,2013-06-13 15:12:00,
2013-06-13 10:22:00,72.0,63.0,29.98,East,90,9.0,15.0,71,-99.99,,,-99.99,,2013-06-13 15:22:00,
2013-06-13 10:33:00,72.0,63.0,29.99,NNE,22,9.0,13.0,71,-99.99,,,-99.99,,2013-06-13 15:33:00,
2013-06-13 10:43:00,72.0,62.0,29.98,NNW,337,10.0,14.0,71,-99.99,,,-99.99,,2013-06-13 15:43:00,
2013-06-13 10:53:00,74.0,62.0,29.99,East,90,8.0,13.0,65,-99.99,,,-99.99,,2013-06-13 15:53:00,
2013-06-13 11:02:00,73.0,62.0,30.00,NNW,337,10.0,13.0,69,-99.99,,,-99.99,,2013-06-13 16:02:00,
2013-06-13 11:12:00,74.0,63.0,29.99,NNE,22,9.0,13.0,69,-99.99,,,-99.99,,2013-06-13 16:12:00,
2013-06-13 11:22:00,75.0,63.0,29.99,East,90,9.0,16.0,67,-99.99,,,-99.99,,2013-06-13 16:22:00,
2013-06-13 11:33:00,75.0,64.0,29.99,NNE,22,9.0,13.0,69,-99.99,,,-99.99,,2013-06-13 16:33:00,
2013-06-13 11:43:00,75.0,66.0,29.99,East,90,9.0,12.0,73,-99.99,,,-99.99,,2013-06-13 16:43:00,
2013-06-13 11:53:00,75.0,64.0,30.00,NW,315,8.0,11.0,68,-99.99,,,-99.99,,2013-06-13 16:53:00,
2013-06-13 12:02:00,76.0,65.0,30.00,NNE,22,8.0,13.0,67,-99.99,,,-99.99,,2013-06-13 17:02:00,
2013-06-13 12:11:00,76.0,63.0,30.00,East,90,9.0,13.0,64,-99.99,,,-99.99,,2013-06-13 17:11:00,
2013-06-13 12:24:00,77.0,64.0,30.00,WNW,292,11.0,14.0,63,-99.99,,,-99.99,,2013-06-13 17:24:00,
2013-06-13 12:33:00,77.0,64.0,30.00,NNW,337,9.0,15.0,63,-99.99,,,-99.99,,2013-06-13 17:33:00,
2013-06-13 12:43:00,77.0,65.0,30.00,East,90,10.0,13.0,65,-99.99,,,-99.99,,2013-06-13 17:43:00,
2013-06-13 12:53:00,79.0,64.0,30.00,East,90,9.0,14.0,59,-99.99,,,-99.99,,2013-06-13 17:53:00,
2013-06-13 13:02:00,79.0,64.0,30.00,East,90,9.0,14.0,59,-99.99,,,-99.99,,2013-06-13 18:02:00,
2013-06-13 13:11:00,79.0,64.0,30.00,East,90,8.0,11.0,60,-99.99,,,-99.99,,2013-06-13 18:11:00,
2013-06-13 13:22:00,80.0,63.0,30.01,NNE,22,7.0,13.0,57,-99.99,,,-99.99,,2013-06-13 18:22:00,
2013-06-13 13:33:00,80.0,64.0,30.01,NE,45,9.0,14.0,59,-99.99,,,-99.99,,2013-06-13 18:33:00,
2013-06-13 13:43:00,78.0,63.0,30.01,NNW,337,9.0,12.0,59,-99.99,,,-99.99,,2013-06-13 18:43:00,
2013-06-13 13:52:00,79.0,63.0,30.02,NNE,22,9.0,13.0,57,-99.99,,,-99.99,,2013-06-13 18:52:00,
2013-06-13 14:01:00,79.0,61.0,30.01,East,90,7.0,11.0,54,-99.99,,,-99.99,,2013-06-13 19:01:00,
2013-06-13 14:11:00,82.0,62.0,30.01,NNW,337,7.0,12.0,52,-99.99,,,-99.99,,2013-06-13 19:11:00,
2013-06-13 14:22:00,79.0,62.0,30.01,NE,45,8.0,12.0,54,-99.99,,,-99.99,,2013-06-13 19:22:00,
2013-06-13 14:33:00,80.0,62.0,30.00,NNE,22,5.0,11.0,54,-99.99,,,-99.99,,2013-06-13 19:33:00,
2013-06-13 14:43:00,79.0,61.0,30.00,NE,45,4.0,7.0,54,-99.99,,,-99.99,,2013-06-13 19:43:00,
2013-06-13 14:53:00,79.0,61.0,30.00,NE,45,5.0,10.0,54,-99.99,,,-99.99,,2013-06-13 19:53:00,
2013-06-13 15:01:00,82.0,63.0,30.00,WNW,292,7.0,13.0,53,-99.99,,,-99.99,,2013-06-13 20:01:00,
2013-06-13 15:11:00,80.0,63.0,30.00,NE,45,6.0,12.0,55,-99.99,,,-99.99,,2013-06-13 20:11:00,
2013-06-13 15:22:00,81.0,61.0,30.00,NNE,22,8.0,14.0,50,-99.99,,,-99.99,,2013-06-13 20:22:00,
2013-06-13 15:33:00,80.0,63.0,29.99,NE,45,7.0,11.0,55,-99.99,,,-99.99,,2013-06-13 20:33:00,
2013-06-13 15:44:00,81.0,60.0,29.99,NNE,22,7.0,11.0,49,-99.99,,,-99.99,,2013-06-13 20:44:00,
2013-06-13 15:53:00,82.0,62.0,29.99,North,0,6.0,9.0,52,-99.99,,,-99.99,,2013-06-13 20:53:00,
2013-06-13 16:02:00,82.0,61.0,29.99,NE,45,7.0,11.0,50,-99.99,,,-99.99,,2013-06-13 21:02:00,
2013-06-13 16:11:00,82.0,62.0,29.99,ENE,67,5.0,11.0,52,-99.99,,,-99.99,,2013-06-13 21:11:00,
2013-06-13 16:22:00,82.0,60.0,29.98,NE,45,7.0,11.0,48,-99.99,,,-99.99,,2013-06-13 21:22:00,
2013-06-13 16:34:00,82.0,60.0,29.98,NE,45,7.0,11.0,48,-99.99,,,-99.99,,2013-06-13 21:34:00,
2013-06-13 16:43:00,81.0,59.0,29.98,ENE,67,5.0,9.0,47,-99.99,,,-99.99,,2013-06-13 21:43:00,
2013-06-13 16:52:00,81.0,59.0,29.98,ENE,67,5.0,9.0,47,-99.99,,,-99.99,,2013-06-13 21:52:00,
2013-06-13 17:00:00,83.0,60.0,29.99,NE,45,6.0,9.0,46,-99.99,,,-99.99,,2013-06-13 22:00:00,
2013-06-13 17:02:00,82.0,59.0,29.99,ENE,67,6.0,11.0,46,-99.99,,,-99.99,,2013-06-13 22:02:00,
2013-06-13 17:11:00,83.0,60.0,29.99,NE,45,6.0,9.0,46,-99.99,,,-99.99,,2013-06-13 22:11:00,
2013-06-13 17:22:00,83.0,60.0,29.99,NE,45,6.0,9.0,46,-99.99,,,-99.99,,2013-06-13 22:22:00,
2013-06-13 17:33:00,83.0,60.0,29.99,NE,45,6.0,9.0,46,-99.99,,,-99.99,,2013-06-13 22:33:00,
2013-06-13 17:43:00,83.0,60.0,29.99,NE,45,6.0,9.0,46,-99.99,,,-99.99,,2013-06-13 22:43:00,
2013-06-13 17:52:00,83.0,60.0,29.99,NE,45,6.0,9.0,46,-99.99,,,-99.99,,2013-06-13 22:52:00,
2013-06-13 18:52:00,81.0,58.0,30.00,East,90,8.0,10.0,46,-99.99,,,-99.99,,2013-06-13 23:52:00,
2013-06-13 19:01:00,80.0,57.0,30.00,NNE,22,7.0,9.0,44,-99.99,,,-99.99,,2013-06-14 00:01:00,
2013-06-13 19:12:00,80.0,58.0,30.00,East,90,6.0,9.0,48,-99.99,,,-99.99,,2013-06-14 00:12:00,
2013-06-13 19:22:00,80.0,58.0,30.00,East,90,6.0,9.0,48,-99.99,,,-99.99,,2013-06-14 00:22:00,
2013-06-13 19:34:00,79.0,60.0,30.00,NNE,22,4.0,6.0,53,-99.99,,,-99.99,,2013-06-14 00:34:00,
2013-06-13 19:43:00,79.0,59.0,30.01,NNW,337,5.0,8.0,52,-99.99,,,-99.99,,2013-06-14 00:43:00,
2013-06-13 19:53:00,79.0,59.0,30.01,NNW,337,5.0,8.0,52,-99.99,,,-99.99,,2013-06-14 00:53:00,
2013-06-13 20:01:00,79.0,59.0,30.01,NNW,337,5.0,8.0,52,-99.99,,,-99.99,,2013-06-14 01:01:00,
2013-06-13 20:11:00,78.0,57.0,30.01,East,90,5.0,7.0,50,-99.99,,,-99.99,,2013-06-14 01:11:00,
2013-06-13 20:22:00,77.0,59.0,30.01,NNE,22,5.0,8.0,54,-99.99,,,-99.99,,2013-06-14 01:22:00,
2013-06-13 20:32:00,76.0,59.0,30.00,NNE,22,4.0,6.0,55,-99.99,,,-99.99,,2013-06-14 01:32:00,
2013-06-13 20:40:00,74.0,59.0,29.99,NNE,22,3.0,4.0,60,-99.99,,,-99.99,,2013-06-14 01:40:00,
2013-06-13 20:43:00,76.0,59.0,30.00,NNE,22,4.0,6.0,56,-99.99,,,-99.99,,2013-06-14 01:43:00,
2013-06-13 20:52:00,74.0,59.0,29.99,NNE,22,4.0,4.0,58,-99.99,,,-99.99,,2013-06-14 01:52:00,
2013-06-13 21:02:00,74.0,59.0,29.99,NNE,22,3.0,4.0,60,-99.99,,,-99.99,,2013-06-14 02:02:00,
2013-06-13 21:11:00,74.0,59.0,29.99,NNE,22,3.0,4.0,60,-99.99,,,-99.99,,2013-06-14 02:11:00,
2013-06-13 21:22:00,74.0,59.0,29.99,NNE,22,3.0,4.0,60,-99.99,,,-99.99,,2013-06-14 02:22:00,
2013-06-13 21:32:00,74.0,59.0,29.99,NNE,22,3.0,4.0,60,-99.99,,,-99.99,,2013-06-14 02:32:00,